MDT,Max TemperatureF,Mean TemperatureF,Min TemperatureF,Max Dew PointF,MeanDew PointF,Min DewpointF,Max Humidity, Mean Humidity, Min Humidity, Max Sea Level PressureIn, Mean Sea Level PressureIn, Min Sea Level PressureIn, Max VisibilityMiles, Mean VisibilityMiles, Min VisibilityMiles, Max Wind SpeedMPH, Mean Wind SpeedMPH, Max Gust SpeedMPH,PrecipitationIn, CloudCover, Events, WindDirDegrees
2013-10-1,69,54,38,37,33,28,70,47,24,29.89,29.82,29.74,10,10,10,14,5,17,0.00,0,,310
2013-10-2,58,49,39,41,36,28,92,64,35,29.97,29.89,29.78,10,9,5,21,7,26,0.33,5,Rain,330
2013-10-3,41,36,30,39,35,30,100,93,86,30.09,29.91,29.78,10,6,0,22,6,26,0.58,7,Fog-Rain-Snow,2
2013-10-4,30,28,26,30,28,24,100,93,85,30.46,30.31,30.06,10,2,0,24,8,32,0.75,8,Fog-Snow,67
2013-10-5,38,26,13,29,23,14,100,80,59,30.48,30.41,30.31,10,9,2,9,2,12,0.00,0,Rain,300
2013-10-6,50,37,24,37,29,23,92,74,56,30.40,30.32,30.22,10,10,8,9,2,9,0.00,0,,255
2013-10-7,59,45,30,40,34,26,82,65,47,30.19,30.01,29.83,10,10,9,13,4,16,0.00,0,,296
2013-10-8,68,53,38,42,32,20,89,54,19,29.83,29.73,29.60,10,10,8,26,6,37,0.00,0,,276
2013-10-9,49,46,42,38,36,34,82,69,56,29.98,29.91,29.82,10,10,8,12,3,14,T,8,Rain,300
2013-10-10,47,43,38,42,39,36,100,88,76,29.91,29.74,29.63,10,9,5,9,2,10,0.09,7,Rain,308
2013-10-11,50,42,33,43,37,29,100,78,56,30.08,29.86,29.67,10,10,4,16,5,18,0.02,7,Rain,136
2013-10-12,48,37,26,33,29,25,85,68,50,30.13,30.09,30.03,10,10,9,10,2,12,0.00,1,,269
2013-10-13,50,41,32,38,34,30,100,76,52,30.09,30.02,29.95,10,10,8,15,4,18,0.01,4,Rain,333
2013-10-14,39,34,29,37,32,28,100,88,76,30.39,30.18,29.99,10,6,0,18,5,22,0.33,8,Fog-Rain-Snow,357
2013-10-15,42,34,26,28,27,24,92,74,55,30.43,30.34,30.24,10,7,2,12,3,15,T,5,Snow,201
2013-10-16,52,38,24,29,24,18,81,57,33,30.21,30.11,30.00,10,10,10,13,3,15,0.00,0,,250
2013-10-17,44,38,31,34,30,25,100,79,57,30.20,30.12,30.05,10,7,2,18,4,22,0.13,7,Rain-Snow,340
2013-10-18,46,37,28,31,27,21,100,69,37,30.31,30.20,30.12,10,10,7,13,4,16,0.00,3,,145
2013-10-19,61,45,29,31,26,22,72,48,23,30.11,29.97,29.86,10,10,10,20,5,21,0.00,0,,208
2013-10-20,48,41,33,36,32,28,100,77,53,30.16,30.06,29.86,10,9,2,14,6,18,0.04,5,Rain-Snow,188
2013-10-21,61,45,28,30,27,23,85,55,25,30.20,30.13,30.03,10,10,10,16,4,20,0.00,0,,175
2013-10-22,64,50,35,35,30,27,70,50,30,30.22,30.11,30.02,10,10,10,13,4,16,0.00,0,,211
2013-10-23,62,48,34,31,28,23,70,47,23,30.18,30.12,30.06,10,10,8,13,4,15,0.00,0,,267
2013-10-24,57,45,32,37,33,27,82,65,47,30.27,30.19,30.13,10,10,10,12,4,14,0.00,0,,265
2013-10-25,65,48,30,34,29,25,85,54,22,30.27,30.18,30.11,10,10,10,16,3,18,0.00,0,,278
2013-10-26,62,48,34,32,28,24,76,53,29,30.32,30.21,30.06,10,10,10,12,2,13,0.00,0,,227
2013-10-27,65,51,37,34,23,17,59,38,16,30.03,29.83,29.68,10,10,10,17,6,22,0.00,1,,278
2013-10-28,46,36,26,36,28,26,100,73,45,30.09,29.97,29.77,10,3,0,17,7,23,0.80,8,Fog-Rain-Snow,23
2013-10-29,30,25,20,27,24,19,100,93,85,30.07,29.96,29.86,10,6,1,14,5,17,T,7,Snow,2
2013-10-30,31,24,17,28,22,17,100,93,85,29.98,29.90,29.81,10,4,0,13,2,13,0.00,5,Fog,234
2013-10-31,51,43,34,31,25,18,81,64,46,29.98,29.91,29.82,10,10,10,14,5,19,0.00,1,,272